星链-36673(STARLINK-36673)

导读

STARLINK-36673是美国SpaceX星链星座的一员,于2026年2月2日发射升空。星链项目旨在构建全球卫星互联网星座,为全球偏远地区、海洋空域等信号盲区提供高速低延迟的宽带网络服务,该卫星入轨后将逐步展开轨道测试,加入现有星链网络扩容组网,服务全球网络覆盖需求。

基本信息
目录编号:
67660
目录名称:
STARLINK-36673
国际标识:
2026-022N
轨道中心:
EARTH
卫星名称:
星链-36673
卫星全名:
星链-36673(STARLINK-36673)
卫星状态:
在轨 (已飞行131 天)
发射日期:
2026-02-02 UTC
国别 :
美国 (US)
星等 :
--
轨道信息
数据来源 国际轨道数据
星历时间: 2026-06-12T10:36:26+0800
1天前
查看轨道信息
半长轴: 6843.674km
偏心率: 0.0001502
轨道倾角: 97.284°
近地点辐角 130.712°
升交点赤经 196.123°
平近点角 229.426°
近地点: 464.509km
远地点: 466.565km
周期: 93.906分钟
每日圈数: 15.334472
详细信息
固有亮度:
5
最大亮度:
2.5
卫星平台:
Starlink V1.0
覆盖范围:
全球
运营商:
太空探索技术公司
运营商所在国:
美国
制造商(研发单位):
太空探索技术公司
制造商所在国:
美国
使用方式:
暂无
卫星简介
Starlink 计划是 SpaceX 推出的全球卫星互联网项目,通过发射低轨道卫星,为全球尤其是偏远地区提供高速、低延迟的互联网服务。自 2019 年起,Starlink 已部署数千颗卫星,旨在缩小全球数字鸿沟,推动互联网普及。该项目还为军事、航空等行业提供通信支持,带来广泛经济效益。
2D轨道图
3D轨道图
轨道高度分析图
轨道倾角分析图
轨道综合分析图
查看轨道综合分析图